📊 Raw Sensor Data
Showing records 43076 to 43100 of 85,011 total
| ID | Distance (ft) | Battery V | Battery A | Int Temp (°F) | Int Humid (%) | Ext Temp (°F) | Solar V | RSSI | SNR | Time Stamp |
|---|---|---|---|---|---|---|---|---|---|---|
| 41948 | 15.4 | 3.87 | -5 | 52 | 43 | 54 | 0.00 | -74 | 8 | 05/29/2025 02:15 AM |
| 41947 | 15.4 | 3.87 | -5 | 52 | 43 | 54 | 0.00 | -74 | 8 | 05/29/2025 02:00 AM |
| 41946 | 15.4 | 3.87 | -5 | 52 | 43 | 54 | 0.00 | -74 | 8 | 05/29/2025 01:45 AM |
| 41945 | 15.4 | 3.92 | -5 | 53 | 43 | 54 | 0.00 | -73 | 8 | 05/29/2025 01:30 AM |
| 41944 | 15.4 | 3.87 | -5 | 53 | 43 | 54 | 0.00 | -74 | 8 | 05/29/2025 01:15 AM |
| 41943 | 15.4 | 3.87 | -5 | 53 | 43 | 54 | 0.00 | -73 | 8 | 05/29/2025 01:00 AM |
| 41942 | 15.4 | 3.87 | -5 | 53 | 43 | 54 | 0.00 | -73 | 8 | 05/29/2025 12:46 AM |
| 41941 | 15.4 | 3.92 | -5 | 53 | 44 | 55 | 0.00 | -74 | 8 | 05/29/2025 12:30 AM |
| 41940 | 15.4 | 3.92 | -5 | 53 | 44 | 54 | 0.00 | -76 | 8 | 05/29/2025 12:15 AM |
| 41939 | 15.4 | 3.87 | -5 | 54 | 44 | 54 | 0.10 | -75 | 8 | 05/29/2025 12:00 AM |
| 41938 | 15.4 | 3.87 | -5 | 54 | 44 | 55 | 0.00 | -75 | 7 | 05/28/2025 11:45 PM |
| 41937 | 15.4 | 3.87 | -5 | 55 | 45 | 55 | 0.00 | -74 | 8 | 05/28/2025 11:30 PM |
| 41936 | 15.4 | 3.87 | -5 | 55 | 45 | 56 | 0.00 | -72 | 8 | 05/28/2025 11:15 PM |
| 41935 | 15.4 | 3.88 | -5 | 56 | 45 | 57 | 0.00 | -74 | 8 | 05/28/2025 11:00 PM |
| 41934 | 15.4 | 3.93 | -5 | 56 | 46 | 57 | 0.00 | -71 | 8 | 05/28/2025 10:45 PM |
| 41933 | 15.4 | 3.88 | -5 | 57 | 46 | 57 | 0.00 | -71 | 8 | 05/28/2025 10:30 PM |
| 41932 | 15.4 | 3.88 | -5 | 58 | 46 | 58 | 0.00 | -73 | 8 | 05/28/2025 10:15 PM |
| 41931 | 15.4 | 3.88 | -5 | 58 | 46 | 59 | 0.00 | -73 | 7 | 05/28/2025 10:00 PM |
| 41930 | 15.4 | 3.88 | -5 | 59 | 47 | 60 | 0.00 | -74 | 8 | 05/28/2025 09:45 PM |
| 41929 | 15.4 | 3.88 | -5 | 60 | 47 | 60 | 0.00 | -71 | 8 | 05/28/2025 09:30 PM |
| 41928 | 15.4 | 3.88 | -5 | 60 | 48 | 61 | 0.00 | -72 | 8 | 05/28/2025 09:15 PM |
| 41927 | 15.4 | 3.93 | -5 | 61 | 49 | 61 | 0.00 | -73 | 7 | 05/28/2025 09:00 PM |
| 41926 | 15.4 | 3.93 | -5 | 62 | 51 | 62 | 0.00 | -74 | 8 | 05/28/2025 08:45 PM |
| 41925 | 15.4 | 3.94 | -5 | 64 | 52 | 63 | 0.80 | -71 | 8 | 05/28/2025 08:30 PM |
| 41924 | 15.4 | 3.88 | -25 | 66 | 53 | 64 | 2.30 | -74 | 8 | 05/28/2025 08:15 PM |